Current Version              Previous Version:    01  02  03  04  05  06  07  08  09  10  11  12  13  14  15  16  17  18  19  20  21  22  23  24  25  26  27  28  29  30  
   31  32  33  34  35  36  37  38  39  40  41  42  43  44  45  46  47  48  49  50  51  52  53  54  55  56  57  58  59  60  

[Printable]
445
ASUS44 KFWD 010701
RWRTX
NORTH TEXAS HOURLY WEATHER ROUNDUP
NATIONAL WEATHER SERVICE FORT WORTH TX
200 AM CDT WED OCT 01 2014

NOTE: "FAIR" INDICATES FEW OR NO CLOUDS BELOW 12,000 FEET WITH NO
SIGNIFICANT WEATHER AND/OR OBSTRUCTIONS TO VISIBILITY.

TXZ118-119-010800-
DALLAS/FORT WORTH METROPLEX

CITY           SKY/WX    TMP DP  RH WIND       PRES   REMARKS
DFW AIRPORT    CLEAR     78  68  71 S9        29.78R
DALLAS LOVE    PTCLDY    78  68  71 S9        29.79R
FTW MEACHAM    CLEAR     78  66  66 S9        29.77S
DAL-EXECUTIVE  CLEAR     77  68  73 S6        29.79R
FTW-ALLIANCE   PTCLDY    77  66  68 S8        29.77S
FTW-NAS-JRB    CLEAR     80  64  58 S8        29.82R
ARLINGTON      CLEAR     77  68  73 SE8       29.79R
GRAND PRAIRIE  CLEAR     77  67  71 S3        29.80S
ADDISON        CLEAR     78  67  69 S8        29.81S
MESQUITE       CLEAR     74  68  82 S5        29.80R
LANCASTER      CLEAR     75  67  76 S5        29.81R
$$

TXZ091>094-102>105-117-120-121-131>134-010800-
NORTH CENTRAL TEXAS

CITY           SKY/WX    TMP DP  RH WIND       PRES   REMARKS
SHRMAN/DENISON CLEAR     76  67  73 SE10      29.80S
BRIDGEPORT     CLEAR     76  61  59 S8        29.78S
DENTON         PTCLDY    76  68  76 SE9       29.77F
MCKINNEY       CLEAR     73  67  81 SE5       29.79R
GREENVILLE     CLEAR     73  68  83 SE5       29.81R
ROCKWALL       CLEAR     74  69  85 S5        29.79S
TERRELL        CLEAR     75  69  81 S5        29.80R
WAXAHACHIE     CLEAR     74  69  83 SE5       29.81R
CLEBURNE       CLEAR     73  68  83 S5        29.82R
GRANBURY       CLEAR     78  66  66 SE8       29.79F
$$

TXZ083>090-098>101-113>116-127>130-139>142-154-155-010800-
WESTERN NORTH TEXAS

CITY           SKY/WX    TMP DP  RH WIND       PRES   REMARKS
WICHITA FALLS  CLOUDY    77  58  51 S14       29.73R
WF-KICKAPOO    MOCLDY    75  56  51 S7        29.75R
VERNON         PTCLDY    71  61  71 S8        29.72F
ABILENE        CLEAR     77  61  57 S15       29.78S
ABILENE-DYESS  CLEAR     76  61  59 S21       29.75F
MINERAL WELLS  CLEAR     71  60  68 SE9       29.76S
STEPHENVILLE   CLEAR     72  64  73 SE3       29.83S
COMANCHE       CLEAR     71  62  71 S5        29.81S
COLEMAN        CLEAR     72  60  67 S6        29.81S
$$

TXZ143>147-156>162-174-175-010800-
CENTRAL TEXAS

CITY           SKY/WX    TMP DP  RH WIND       PRES   REMARKS
WACO           CLEAR     76  70  82 S13       29.79R
WACO-MCGREGOR  CLEAR     75  64  69 S9        29.81R
CORSICANA      CLEAR     75  69  81 S7        29.81R
MEXIA          CLEAR     72  70  93 SE6       29.79S
HEARNE         CLEAR     73  70  92 SE6       29.81R
TEMPLE         CLEAR     73  66  78 S13       29.79S
KILLEEN        CLEAR     75  70  83 S7        29.80S
KILLEEN-SKYLRK CLEAR    N/A N/A N/A S10       29.78S
HAMILTON       CLEAR     72  64  78 S13       29.82S
LAMPASAS       CLEAR     73  70  89 CALM      29.81R
$$

TXZ095>097-106>112-122>126-135>138-148>153-164>167-010800-
EAST TEXAS

CITY           SKY/WX    TMP DP  RH WIND       PRES   REMARKS
PARIS          CLEAR     70  61  73 E7        29.82R
SULPHUR SPRNGS CLEAR     76  69  77 S6        29.82S
MOUNT PLEASANT CLEAR     72  68  89 CALM      29.83R
MINEOLA        CLEAR     73  72  94 SE3       29.81S
TYLER          CLEAR     75  70  84 S7        29.81S
LONGVIEW       CLEAR     74  69  85 S5        29.81S
MARSHALL       MOCLDY    76  71  85 CALM      29.84S
ATHENS         CLEAR     73  70  88 S6        29.80R
PALESTINE      CLEAR     74  72  93 SE3       29.82S
HENDERSON      CLEAR     72  70  94 CALM      29.83S
NACOGDOCHES    CLEAR     72  70  94 SE5       29.83S
LUFKIN         CLOUDY    76  72  87 SE3       29.82S
$$

SUPPLEMENTAL OBSERVATIONS (CENTRAL)

CITY           SKY/WX    TMP DP  RH WIND       PRES   REMARKS
$$

SUPPLEMENTAL OBSERVATIONS (WEST)

CITY           SKY/WX    TMP DP  RH WIND       PRES   REMARKS
$$

SUPPLEMENTAL OBSERVATIONS (EAST)

CITY           SKY/WX    TMP DP  RH WIND       PRES   REMARKS
$$

SUPPLEMENTAL OBSERVATIONS ARE A COLLECTION OF AUTOMATED INSTRUMENTS
THAT ARE MAINTAINED BY A VARIETY OF FEDERAL AND STATE AGENCIES.
CERTAIN ELEMENTS...SUCH AS HUMIDITY VALUES AND SUSTAINED WIND
SPEEDS...MAY BE APPROXIMATED.